CZ-6A DEB, 66789

Orbit data source: Space-Track

CZ-6A DEB, 66789 is space debris in SSO originally from a launch on Fri, 11 Nov 2022 UTC launched from the Taiyaun Space Center, China (TSC). Debris objects in space refer to the collection of defunct objects orbiting the Earth. Examples of debris include non-operational satellites, rocket bodies, and fragments generated from explosions, collisions, or faulty payload assembly.

Loading next visibility...
Identifier
66789, 2022-151AJF
Orbit
SSO
Country
Flag of CNCN / PRC
Related business
Manufacturer
SAST
Mission
Spacecraft
Bus & Motor
Unknown
Mass
Unknown
Launch date (UTC)
2022-11-11 (4 years ago)
Launch vehicle
Unknown
Launch site
Taiyaun Space Center, China (TSC)
Object type
Payload
Rocket body
Debris
Shape & HBR
Unknown shape, 1.1 m
Radar Cross Section
Small (<0.1 m²)

Expand to show TLE details & history
Last TLE update: 1 day ago

TLE from 1 day ago
0 CZ-6A DEB
1 66789U 22151AJF 26263.51710210  .00002137  00000-0  10015-2 0  9995
2 66789  98.8330 270.2754 0052652  51.7383 308.8514 14.20504007178865
Epoch: 2026-09-20T12:24Z
TLE epoch observation values (Epoch: 2026-09-20T12:24:37.621Z)
Latitude
-0°
Longitude
84.7085°
Altitude
802.89 km
Speed
7.464 km/s
True Right ascension
18h 01m 06s
True Declination
0° 00' 00"
Sunlit
Object was in daylight at epoch
Visualization orbit readout
Latitude
Unknown
Longitude
Unknown
Altitude
Unknown
Speed
Unknown
Apparent Right ascension
Unknown
Apparent Declination
Unknown
Sunlit
N/A
Visualization observer readout
Local Sidereal Time
13:12:06
Azimuth
Unknown
Elevation
Unknown
Doppler factor
Unknown
Orbital elements
Apogee altitude
858.716 km
Perigee altitude
782.909 km
Semi-major axis
7,198.95 km
Eccentricity
0.00527
Inclination
98.833°
RAAN
270.2754°
Arg. of periapsis
51.7383°
True anomaly
308.37959°
Mean anomaly
308.8514°
Eccentric anomaly
308.61569°
Mean motion
3.55336 °/min
Orbital period
101.31 mins
BSTAR
0.0010015
Loading maneuver chart data...
Computing Atmospheric mass density...
Loading historical data...
Loading historical data...
Loading historical data...
Loading historical data...
Loading historical data...
Loading historical data...
Loading historical data...

Documentation

Showing up to 5 results
|